Time,TemperatureF,DewpointF,PressureIn,WindDirection,WindDirectionDegrees,WindSpeedMPH,WindSpeedGustMPH,Humidity,HourlyPrecipIn,Conditions,Clouds,dailyrainin,SolarRadiationWatts/m^2,SoftwareType,DateUTC
2013-07-10 00:33:00,71.0,28.0,-100.00,ESE,118,0.0,7.0,20,0.00,,,0.00,0.000000,,2013-07-10 07:33:00,
2013-07-10 00:43:00,71.0,28.0,-100.00,ESE,118,0.0,7.0,20,0.00,,,0.00,0.000000,,2013-07-10 07:43:00,
2013-07-10 00:53:00,71.0,28.0,-100.00,ESE,118,0.0,7.0,20,0.00,,,0.00,0.000000,,2013-07-10 07:53:00,
2013-07-10 01:22:00,72.0,29.0,-100.00,SE,135,2.0,5.0,20,0.00,,,0.00,0.000000,,2013-07-10 08:22:00,
2013-07-10 01:33:00,72.0,29.0,-100.00,SE,135,2.0,5.0,20,0.00,,,0.00,0.000000,,2013-07-10 08:33:00,
2013-07-10 01:42:00,72.0,29.0,-100.00,SE,135,2.0,5.0,20,0.00,,,0.00,0.000000,,2013-07-10 08:42:00,
2013-07-10 01:53:00,72.0,29.0,-100.00,SE,135,2.0,5.0,20,0.00,,,0.00,0.000000,,2013-07-10 08:53:00,
2013-07-10 02:22:00,70.0,28.0,-100.00,ESE,123,0.0,6.0,21,0.00,,,0.00,0.000000,,2013-07-10 09:22:00,
2013-07-10 02:32:00,70.0,28.0,-100.00,ESE,123,0.0,6.0,21,0.00,,,0.00,0.000000,,2013-07-10 09:32:00,
2013-07-10 02:42:00,70.0,28.0,-100.00,ESE,123,0.0,6.0,21,0.00,,,0.00,0.000000,,2013-07-10 09:42:00,
2013-07-10 02:52:00,70.0,28.0,-100.00,ESE,123,0.0,6.0,21,0.00,,,0.00,0.000000,,2013-07-10 09:52:00,
2013-07-10 02:59:00,-999.0,-99.9,-100.00,East,95,0.0,4.0,-999,-99.99,,,-99.99,0.000000,,2013-07-10 09:59:00,
2013-07-10 03:23:00,70.0,27.0,-100.00,East,95,0.0,4.0,20,0.00,,,0.00,0.000000,,2013-07-10 10:23:00,
2013-07-10 03:32:00,70.0,27.0,-100.00,East,95,0.0,4.0,20,0.00,,,0.00,0.000000,,2013-07-10 10:32:00,
2013-07-10 03:50:00,-999.0,-99.9,-100.00,East,95,0.0,4.0,-999,-99.99,,,-99.99,0.000000,,2013-07-10 10:50:00,
2013-07-10 07:22:00,68.0,31.0,-100.00,ESE,120,0.0,6.0,25,-99.99,,,0.00,17.000000,,2013-07-10 14:22:00,
2013-07-10 07:33:00,68.0,31.0,-100.00,ESE,120,0.0,6.0,25,-99.99,,,0.00,17.000000,,2013-07-10 14:33:00,
2013-07-10 07:43:00,68.0,31.0,-100.00,ESE,120,0.0,6.0,25,-99.99,,,0.00,17.000000,,2013-07-10 14:43:00,
2013-07-10 07:53:00,68.0,31.0,-100.00,ESE,120,0.0,6.0,25,-99.99,,,0.00,17.000000,,2013-07-10 14:53:00,
2013-07-10 09:33:00,87.0,40.0,-100.00,NW,323,0.0,5.0,19,0.00,,,0.00,426.000000,,2013-07-10 16:33:00,
2013-07-10 09:44:00,87.0,40.0,-100.00,NW,323,0.0,5.0,19,0.00,,,0.00,426.000000,,2013-07-10 16:44:00,
2013-07-10 09:53:00,87.0,40.0,-100.00,NW,323,0.0,5.0,19,0.00,,,0.00,426.000000,,2013-07-10 16:53:00,
2013-07-10 11:21:00,90.0,41.0,-100.00,West,275,4.0,10.0,18,-99.99,,,0.00,669.000000,,2013-07-10 18:21:00,
2013-07-10 11:32:00,90.0,41.0,-100.00,West,275,4.0,10.0,18,-99.99,,,0.00,669.000000,,2013-07-10 18:32:00,
2013-07-10 11:44:00,90.0,41.0,-100.00,West,275,4.0,10.0,18,-99.99,,,0.00,669.000000,,2013-07-10 18:44:00,
2013-07-10 11:52:00,90.0,41.0,-100.00,West,275,4.0,10.0,18,-99.99,,,0.00,669.000000,,2013-07-10 18:52:00,
2013-07-10 12:32:00,87.0,41.0,-100.00,WSW,257,0.0,8.0,20,0.00,,,0.00,266.000000,,2013-07-10 19:32:00,
2013-07-10 12:42:00,87.0,41.0,-100.00,WSW,257,0.0,8.0,20,0.00,,,0.00,266.000000,,2013-07-10 19:42:00,
2013-07-10 12:52:00,87.0,41.0,-100.00,WSW,257,0.0,8.0,20,0.00,,,0.00,266.000000,,2013-07-10 19:52:00,
2013-07-10 13:22:00,87.0,41.0,-100.00,WNW,283,0.0,5.0,20,0.00,,,0.00,243.000000,,2013-07-10 20:22:00,
2013-07-10 13:32:00,87.0,41.0,-100.00,WNW,283,0.0,5.0,20,0.00,,,0.00,243.000000,,2013-07-10 20:32:00,
2013-07-10 13:43:00,87.0,41.0,-100.00,WNW,283,0.0,5.0,20,0.00,,,0.00,243.000000,,2013-07-10 20:43:00,
2013-07-10 13:52:00,87.0,41.0,-100.00,WNW,283,0.0,5.0,20,0.00,,,0.00,243.000000,,2013-07-10 20:52:00,
2013-07-10 14:22:00,88.0,43.0,-100.00,ESE,120,0.0,3.0,21,0.00,,,0.00,258.000000,,2013-07-10 21:22:00,
2013-07-10 14:32:00,88.0,43.0,-100.00,ESE,120,0.0,3.0,21,0.00,,,0.00,258.000000,,2013-07-10 21:32:00,
2013-07-10 14:41:00,88.0,43.0,-100.00,ESE,120,0.0,3.0,21,0.00,,,0.00,258.000000,,2013-07-10 21:41:00,
2013-07-10 14:52:00,88.0,43.0,-100.00,ESE,120,0.0,3.0,21,0.00,,,0.00,258.000000,,2013-07-10 21:52:00,
2013-07-10 15:33:00,86.0,44.0,-100.00,ESE,120,1.0,2.0,23,0.00,,,0.00,219.000000,,2013-07-10 22:33:00,
2013-07-10 15:42:00,86.0,44.0,-100.00,ESE,120,1.0,2.0,23,0.00,,,0.00,219.000000,,2013-07-10 22:42:00,
2013-07-10 15:53:00,86.0,44.0,-100.00,ESE,120,1.0,2.0,23,0.00,,,0.00,219.000000,,2013-07-10 22:53:00,
2013-07-10 16:32:00,83.0,45.0,-100.00,ESE,116,1.0,8.0,26,0.00,,,0.00,243.000000,,2013-07-10 23:32:00,
2013-07-10 16:43:00,83.0,45.0,-100.00,ESE,116,1.0,8.0,26,0.00,,,0.00,243.000000,,2013-07-10 23:43:00,
2013-07-10 16:52:00,83.0,45.0,-100.00,ESE,116,1.0,8.0,26,0.00,,,0.00,243.000000,,2013-07-10 23:52:00,
2013-07-10 17:32:00,93.0,42.0,-100.00,SSW,195,4.0,8.0,17,0.00,,,0.00,611.000000,,2013-07-11 00:32:00,
2013-07-10 17:42:00,93.0,42.0,-100.00,SSW,195,4.0,8.0,17,0.00,,,0.00,611.000000,,2013-07-11 00:42:00,
2013-07-10 17:52:00,93.0,42.0,-100.00,SSW,195,4.0,8.0,17,0.00,,,0.00,611.000000,,2013-07-11 00:52:00,
2013-07-10 18:22:00,86.0,44.0,-100.00,WSW,254,4.0,10.0,23,0.00,,,0.00,181.000000,,2013-07-11 01:22:00,
2013-07-10 18:32:00,86.0,44.0,-100.00,WSW,254,4.0,10.0,23,0.00,,,0.00,181.000000,,2013-07-11 01:32:00,
2013-07-10 18:43:00,86.0,44.0,-100.00,WSW,254,4.0,10.0,23,0.00,,,0.00,181.000000,,2013-07-11 01:43:00,
2013-07-10 18:52:00,86.0,44.0,-100.00,WSW,254,4.0,10.0,23,0.00,,,0.00,181.000000,,2013-07-11 01:52:00,
2013-07-10 19:22:00,82.0,42.0,-100.00,West,272,0.0,8.0,24,0.00,,,0.00,112.000000,,2013-07-11 02:22:00,
2013-07-10 19:32:00,82.0,42.0,-100.00,West,272,0.0,8.0,24,0.00,,,0.00,112.000000,,2013-07-11 02:32:00,
2013-07-10 19:43:00,82.0,42.0,-100.00,West,272,0.0,8.0,24,0.00,,,0.00,112.000000,,2013-07-11 02:43:00,
2013-07-10 19:53:00,82.0,42.0,-100.00,West,272,0.0,8.0,24,0.00,,,0.00,112.000000,,2013-07-11 02:53:00,
2013-07-10 20:21:00,78.0,43.0,-100.00,ENE,58,0.0,4.0,29,0.00,,,-99.99,40.000000,,2013-07-11 03:21:00,
2013-07-10 20:33:00,78.0,43.0,-100.00,ENE,58,0.0,4.0,29,0.00,,,-99.99,40.000000,,2013-07-11 03:33:00,
2013-07-10 20:42:00,78.0,43.0,-100.00,ENE,58,0.0,4.0,29,0.00,,,-99.99,40.000000,,2013-07-11 03:42:00,
2013-07-10 20:52:00,78.0,43.0,-100.00,ENE,58,0.0,4.0,29,0.00,,,-99.99,40.000000,,2013-07-11 03:52:00,
2013-07-10 21:22:00,76.0,44.0,-100.00,SE,139,0.0,5.0,32,0.00,,,0.00,1.000000,,2013-07-11 04:22:00,
2013-07-10 21:32:00,76.0,44.0,-100.00,SE,139,0.0,5.0,32,0.00,,,0.00,1.000000,,2013-07-11 04:32:00,
2013-07-10 21:42:00,76.0,44.0,-100.00,SE,139,0.0,5.0,32,0.00,,,0.00,1.000000,,2013-07-11 04:42:00,
2013-07-10 21:53:00,76.0,44.0,-100.00,SE,139,0.0,5.0,32,0.00,,,0.00,1.000000,,2013-07-11 04:53:00,
2013-07-10 22:22:00,74.0,41.0,-100.00,East,100,0.0,4.0,31,0.00,,,0.00,0.000000,,2013-07-11 05:22:00,
2013-07-10 22:32:00,74.0,41.0,-100.00,East,100,0.0,4.0,31,0.00,,,0.00,0.000000,,2013-07-11 05:32:00,
2013-07-10 22:43:00,74.0,41.0,-100.00,East,100,0.0,4.0,31,0.00,,,0.00,0.000000,,2013-07-11 05:43:00,
2013-07-10 22:52:00,74.0,41.0,-100.00,East,100,0.0,4.0,31,0.00,,,0.00,0.000000,,2013-07-11 05:52:00,
2013-07-10 23:22:00,72.0,41.0,-100.00,East,93,0.0,0.0,33,0.00,,,0.00,0.000000,,2013-07-11 06:22:00,
2013-07-10 23:32:00,72.0,41.0,-100.00,East,93,0.0,0.0,33,0.00,,,0.00,0.000000,,2013-07-11 06:32:00,
2013-07-10 23:43:00,72.0,41.0,-100.00,East,93,0.0,0.0,33,0.00,,,0.00,0.000000,,2013-07-11 06:43:00,
2013-07-10 23:52:00,72.0,41.0,-100.00,East,93,0.0,0.0,33,0.00,,,0.00,0.000000,,2013-07-11 06:52:00,